When you browse on this site, cookies collect data to enhance your experience and personalize the content and advertising you see.
Visit our Privacy Policy to learn more. By continuing to use the site, you agree to this use of cookies and data.
  • In Deutschland
  • Länderverzeichnis
  • Für 7 Tage
  • Wassertemperatur
  • Satellitenkarten
  • Wetterkarte
  • Widgets
  • user-avatar
    Anmelden

    Stündliche Wetter Neftcala

    Heute, 11 Dezember, Dienstag

    Zeit Temperatur Niederschläge Wind Luftdruck Luftfeuchtigkeit
    00:00 +9°C° 0 mm 2 m/S 762 mmHg 82%
    01:00 +9°C° 0 mm 2 m/S 762 mmHg 84%
    02:00 +9°C° 0 mm 2 m/S 762 mmHg 85%
    03:00 +9°C° 0 mm 2 m/S 762 mmHg 84%
    04:00 +8°C° 0 mm 2 m/S 762 mmHg 83%
    05:00 +8°C° 0 mm 2 m/S 762 mmHg 83%
    06:00 +8°C° 0 mm 2 m/S 762 mmHg 83%
    07:00 +9°C° 0 mm 2 m/S 762 mmHg 79%
    08:00 +10°C° 0 mm 2 m/S 762 mmHg 75%
    09:00 +12°C° 0 mm 2 m/S 762 mmHg 71%
    10:00 +13°C° 0 mm 2 m/S 761 mmHg 66%
    11:00 +14°C° 0 mm 2 m/S 761 mmHg 61%
    12:00 +16°C° 0 mm 2 m/S 761 mmHg 57%
    13:00 +16°C° 0 mm 2 m/S 760 mmHg 56%
    14:00 +16°C° 0 mm 2 m/S 760 mmHg 55%
    15:00 +17°C° 0 mm 2 m/S 759 mmHg 55%
    16:00 +16°C° 0 mm 2 m/S 759 mmHg 58%
    17:00 +13°C° 0 mm 3 m/S 759 mmHg 62%
    18:00 +12°C° 0 mm 3 m/S 759 mmHg 65%
    19:00 +12°C° 0 mm 3 m/S 759 mmHg 65%
    20:00 +12°C° 0 mm 3 m/S 759 mmHg 64%
    21:00 +11°C° 0 mm 3 m/S 759 mmHg 63%
    22:00 +11°C° 0 mm 3 m/S 759 mmHg 62%
    23:00 +11°C° 0 mm 3 m/S 759 mmHg 61%

    Morgen, 12 Dezember, Mittwoch

    Zeit Temperatur Niederschläge Wind Luftdruck Luftfeuchtigkeit
    00:00 +10°C° 0 mm 3 m/S 759 mmHg 60%
    01:00 +10°C° 0 mm 3 m/S 759 mmHg 58%
    02:00 +10°C° 0 mm 4 m/S 759 mmHg 56%
    03:00 +10°C° 0 mm 4 m/S 759 mmHg 55%
    04:00 +10°C° 0 mm 4 m/S 759 mmHg 55%
    05:00 +9°C° 0 mm 5 m/S 760 mmHg 55%
    06:00 +8°C° 0 mm 5 m/S 760 mmHg 55%
    07:00 +9°C° 0 mm 5 m/S 761 mmHg 52%
    08:00 +10°C° 0 mm 6 m/S 761 mmHg 49%
    09:00 +11°C° 0 mm 6 m/S 762 mmHg 46%
    10:00 +13°C° 0 mm 5 m/S 761 mmHg 44%
    11:00 +15°C° 0 mm 4 m/S 761 mmHg 41%
    12:00 +17°C° 0 mm 3 m/S 760 mmHg 39%
    13:00 +17°C° 0 mm 3 m/S 760 mmHg 39%
    14:00 +17°C° 0 mm 3 m/S 759 mmHg 39%
    15:00 +17°C° 0 mm 2 m/S 759 mmHg 38%
    16:00 +16°C° 0 mm 3 m/S 759 mmHg 46%
    17:00 +14°C° 0 mm 4 m/S 759 mmHg 54%
    18:00 +12°C° 0 mm 5 m/S 758 mmHg 62%
    19:00 +12°C° 0 mm 5 m/S 758 mmHg 67%
    20:00 +12°C° 0 mm 5 m/S 758 mmHg 72%
    21:00 +10°C° 0 mm 5 m/S 758 mmHg 77%
    22:00 +11°C° 0 mm 4 m/S 757 mmHg 78%
    23:00 +11°C° 0 mm 4 m/S 757 mmHg 79%

    übermorgen, 13 Dezember, Donnerstag

    Zeit Temperatur Niederschläge Wind Luftdruck Luftfeuchtigkeit
    00:00 +10°C° 0 mm 3 m/S 757 mmHg 80%
    01:00 +10°C° 0 mm 3 m/S 757 mmHg 75%
    02:00 +10°C° 0 mm 4 m/S 757 mmHg 71%
    03:00 +8°C° 0 mm 5 m/S 757 mmHg 66%
    04:00 +8°C° 0 mm 4 m/S 757 mmHg 65%
    05:00 +8°C° 0 mm 4 m/S 757 mmHg 63%
    06:00 +8°C° 0 mm 4 m/S 757 mmHg 61%
    07:00 +9°C° 0 mm 5 m/S 758 mmHg 58%
    08:00 +9°C° 0 mm 5 m/S 758 mmHg 54%
    09:00 +10°C° 0 mm 6 m/S 758 mmHg 50%
    10:00 +13°C° 0 mm 6 m/S 758 mmHg 48%
    11:00 +14°C° 0 mm 6 m/S 758 mmHg 46%
    12:00 +16°C° 0 mm 6 m/S 759 mmHg 43%
    13:00 +16°C° 0 mm 6 m/S 759 mmHg 43%
    14:00 +16°C° 0 mm 6 m/S 760 mmHg 42%
    15:00 +16°C° 0 mm 6 m/S 760 mmHg 41%
    16:00 +15°C° 0 mm 6 m/S 761 mmHg 46%
    17:00 +14°C° 0 mm 6 m/S 762 mmHg 51%
    18:00 +13°C° 0 mm 6 m/S 763 mmHg 57%
    19:00 +11°C° 0 mm 6 m/S 764 mmHg 60%
    20:00 +10°C° 0 mm 6 m/S 764 mmHg 63%
    21:00 +10°C° 0 mm 6 m/S 765 mmHg 66%
    22:00 +9°C° 0 mm 5 m/S 766 mmHg 68%
    23:00 +9°C° 0 mm 5 m/S 766 mmHg 70%

    14 Dezember, Freitag

    Zeit Temperatur Niederschläge Wind Luftdruck Luftfeuchtigkeit
    00:00 +8°C° 0 mm 5 m/S 767 mmHg 71%
    01:00 +8°C° 0 mm 4 m/S 767 mmHg 72%
    02:00 +8°C° 0 mm 4 m/S 768 mmHg 73%
    03:00 +8°C° 0 mm 3 m/S 768 mmHg 74%
    04:00 +8°C° 0 mm 3 m/S 769 mmHg 74%
    05:00 +8°C° 0 mm 3 m/S 769 mmHg 75%
    06:00 +8°C° 0 mm 3 m/S 770 mmHg 75%
    07:00 +8°C° 0 mm 3 m/S 770 mmHg 72%
    08:00 +9°C° 0 mm 3 m/S 770 mmHg 69%
    09:00 +10°C° 0 mm 3 m/S 771 mmHg 67%
    10:00 +10°C° 0 mm 3 m/S 770 mmHg 65%
    11:00 +11°C° 0 mm 3 m/S 770 mmHg 64%
    12:00 +12°C° 0 mm 4 m/S 770 mmHg 63%
    13:00 +11°C° 0 mm 4 m/S 769 mmHg 65%
    14:00 +11°C° 0 mm 4 m/S 769 mmHg 67%
    15:00 +11°C° 0 mm 4 m/S 769 mmHg 69%
    16:00 +11°C° 0 mm 4 m/S 769 mmHg 72%
    17:00 +11°C° 0 mm 4 m/S 769 mmHg 74%
    18:00 +10°C° 0 mm 4 m/S 769 mmHg 76%
    19:00 +10°C° 0.1 mm 4 m/S 769 mmHg 77%
    20:00 +10°C° 0.1 mm 4 m/S 769 mmHg 78%
    21:00 +10°C° 0.1 mm 3 m/S 769 mmHg 79%
    22:00 +10°C° 0.1 mm 3 m/S 769 mmHg 80%
    23:00 +10°C° 0.1 mm 3 m/S 769 mmHg 81%

    15 Dezember, Samstag

    Zeit Temperatur Niederschläge Wind Luftdruck Luftfeuchtigkeit
    00:00 +10°C° 0.1 mm 2 m/S 768 mmHg 82%
    01:00 +10°C° 0.1 mm 3 m/S 769 mmHg 81%
    02:00 +10°C° 0.1 mm 3 m/S 769 mmHg 80%
    03:00 +9°C° 0.1 mm 3 m/S 769 mmHg 79%
    04:00 +8°C° 0.2 mm 4 m/S 769 mmHg 76%
    05:00 +8°C° 0.2 mm 4 m/S 770 mmHg 72%
    06:00 +7°C° 0.2 mm 4 m/S 770 mmHg 69%
    07:00 +8°C° 0.1 mm 5 m/S 771 mmHg 64%
    08:00 +8°C° 0.1 mm 5 m/S 771 mmHg 58%
    09:00 +8°C° 0.1 mm 5 m/S 772 mmHg 53%
    10:00 +8°C° 0.1 mm 5 m/S 771 mmHg 51%
    11:00 +9°C° 0.1 mm 5 m/S 771 mmHg 49%
    12:00 +10°C° 0.1 mm 5 m/S 771 mmHg 47%
    13:00 +11°C° 0.1 mm 4 m/S 771 mmHg 47%
    14:00 +11°C° 0.1 mm 4 m/S 771 mmHg 46%
    15:00 +11°C° 0.1 mm 3 m/S 772 mmHg 46%
    16:00 +11°C° 0 mm 3 m/S 772 mmHg 51%
    17:00 +10°C° 0 mm 3 m/S 773 mmHg 57%
    18:00 +9°C° 0 mm 3 m/S 773 mmHg 63%
    19:00 +9°C° 0 mm 3 m/S 773 mmHg 67%
    20:00 +9°C° 0 mm 3 m/S 774 mmHg 70%
    21:00 +8°C° 0 mm 3 m/S 774 mmHg 74%
    22:00 +8°C° 0.1 mm 3 m/S 774 mmHg 76%
    23:00 +7°C° 0.1 mm 4 m/S 774 mmHg 78%

    16 Dezember, Sonntag

    Zeit Temperatur Niederschläge Wind Luftdruck Luftfeuchtigkeit
    00:00 +7°C° 0.1 mm 4 m/S 774 mmHg 79%
    01:00 +7°C° 0.1 mm 4 m/S 774 mmHg 79%
    02:00 +8°C° 0.1 mm 3 m/S 774 mmHg 79%
    03:00 +8°C° 0.1 mm 3 m/S 774 mmHg 78%
    04:00 +8°C° 0.1 mm 3 m/S 774 mmHg 78%
    05:00 +8°C° 0.1 mm 3 m/S 774 mmHg 78%
    06:00 +8°C° 0.1 mm 3 m/S 774 mmHg 78%
    07:00 +8°C° 0.1 mm 3 m/S 774 mmHg 75%
    08:00 +9°C° 0.1 mm 3 m/S 774 mmHg 73%
    09:00 +8°C° 0.1 mm 4 m/S 775 mmHg 71%
    10:00 +10°C° 0.2 mm 4 m/S 774 mmHg 69%
    11:00 +10°C° 0.2 mm 4 m/S 774 mmHg 67%
    12:00 +11°C° 0.2 mm 4 m/S 773 mmHg 64%
    13:00 +11°C° 0.2 mm 4 m/S 773 mmHg 66%
    14:00 +11°C° 0.2 mm 4 m/S 773 mmHg 68%
    15:00 +10°C° 0.2 mm 5 m/S 773 mmHg 69%
    16:00 +10°C° 0.1 mm 5 m/S 773 mmHg 72%
    17:00 +10°C° 0.1 mm 5 m/S 773 mmHg 75%
    18:00 +10°C° 0.1 mm 5 m/S 773 mmHg 77%
    19:00 +10°C° 0.1 mm 5 m/S 773 mmHg 78%
    20:00 +10°C° 0.1 mm 5 m/S 773 mmHg 79%
    21:00 +10°C° 0.1 mm 5 m/S 773 mmHg 80%
    22:00 +10°C° 0.2 mm 5 m/S 773 mmHg 81%
    23:00 +9°C° 0.2 mm 5 m/S 773 mmHg 82%
    Mehr zeigen